Yakima, WA
on Thursday, January 31, 2013

Thursday
Previous Day Next Day
Daily Summary
 ActualAverageRecord
Temperature
Mean Temperature °F 34°F  
Max Temperature 54°F 42°F 65°F (1971)
Min Temperature 29°F 25°F -21°F (1950)
Degree Days
Heating Degree Days 23 31  
Month to date heating degree days 1055 1057  
Since 1 July heating degree days 3269 3718  
Cooling Degree Days 0 0  
Month to date cooling degree days 0 0  
Year to date cooling degree days 0 0  
Moisture
Dew Point 33°F   
Average Humidity 71    
Maximum Humidity 92    
Minimum Humidity 50    
Precipitation
Precipitation 0.00 in 0.03 in 1.36 in (1963)
Month to date precipitation 0.10 1.14  
Year to date precipitation 0.10 1.14  
Snow
Snow 0.00 in 0.10 in 103.40 in (1947)
Month to date snowfall 1.1 5.3  
Year to date snowfall 1.1 5.3  
Since 1 July snowfall 15.3 18.3  
Snow Depth 0.00 in   
Wind
Wind Speed 3 mph   
Max Wind Speed 14 mph   
Max Gust Speed 18 mph   
Visibility 10 miles   
Events     

Key: T is trace of precipitation, MM is missing value
Source: NWS Daily Summary
Time(PST)TemperatureDew PointHumidity Pressure Visibility Wind DirectionWind SpeedGust SpeedPrecipitationEvents Conditions
12:53 AM 48.9°F 36.0°F 61% 30.27 in 10.0 miles NNW 8.1 mph - N/A   Mostly Cloudy
1:53 AM 45.0°F 35.1°F 68% 30.28 in 10.0 miles SE 3.5 mph - N/A   Clear
2:53 AM 46.9°F 35.1°F 63% 30.27 in 10.0 miles Calm Calm - N/A   Clear
3:53 AM 43.0°F 34.0°F 71% 30.29 in 10.0 miles Calm Calm - N/A   Clear
4:53 AM 42.1°F 33.1°F 70% 30.29 in 10.0 miles Calm Calm - N/A   Clear
5:53 AM 39.9°F 32.0°F 73% 30.30 in 10.0 miles Calm Calm - N/A   Clear
6:53 AM 37.9°F 32.0°F 79% 30.31 in 10.0 miles Calm Calm - N/A   Clear
7:53 AM 39.0°F 32.0°F 76% 30.32 in 10.0 miles WNW 3.5 mph - N/A   Scattered Clouds
8:53 AM 37.9°F 32.0°F 79% 30.33 in 10.0 miles Calm Calm - N/A   Scattered Clouds
9:53 AM 42.1°F 34.0°F 73% 30.32 in 10.0 miles Calm Calm - N/A   Clear
10:53 AM 46.9°F 36.0°F 66% 30.30 in 10.0 miles Calm Calm - N/A   Clear
11:53 AM 51.1°F 36.0°F 56% 30.29 in 10.0 miles NW 4.6 mph - N/A   Clear
12:53 PM 53.1°F 35.1°F 50% 30.26 in 10.0 miles WSW 3.5 mph - N/A   Mostly Cloudy
1:53 PM 53.1°F 35.1°F 50% 30.27 in 10.0 miles Calm Calm - N/A   Mostly Cloudy
2:53 PM 53.1°F 35.1°F 50% 30.25 in 10.0 miles Calm Calm - N/A   Mostly Cloudy
3:53 PM 51.1°F 36.0°F 56% 30.25 in 10.0 miles Calm Calm - N/A   Mostly Cloudy
4:53 PM 45.0°F 34.0°F 65% 30.25 in 10.0 miles Calm Calm - N/A   Mostly Cloudy
5:53 PM 37.0°F 30.0°F 76% 30.25 in 10.0 miles WNW 8.1 mph - N/A   Mostly Cloudy
6:53 PM 41.0°F 33.1°F 73% 30.26 in 10.0 miles West 3.5 mph - N/A   Clear
7:53 PM 35.1°F 30.0°F 82% 30.27 in 10.0 miles NW 5.8 mph - N/A   Scattered Clouds
8:53 PM 33.1°F 28.9°F 85% 30.28 in 10.0 miles NW 5.8 mph - N/A   Partly Cloudy
9:53 PM 30.9°F 28.0°F 89% 30.28 in 9.0 miles WNW 5.8 mph - N/A   Clear
10:53 PM 28.9°F 25.0°F 85% 30.28 in 9.0 miles WSW 3.5 mph - N/A   Clear
11:53 PM 32.0°F 27.0°F 82% 30.29 in 10.0 miles WNW 4.6 mph - N/A   Clear
Moon Phase
Jan. 31 Feb. 03 Feb. 10 Feb. 17 Feb. 25
Sunrise:07:26 AM (PST) Moon Rise:10:36 PM (PST)1/31
Sunset:05:05 PM (PST) Moon Set:09:08 AM (PST)1/31

Copyright © 2014 The Weather Underground, Inc.